星链-34804 (STARLINK-34804)

导读

STARLINK-34804是美国SpaceX公司星链(Starlink)星座的卫星,于2025年7月30日发射。星链计划旨在依托低地球轨道构建全球卫星互联网,为全球偏远、欠发达地区提供高速低延迟宽带服务,该卫星是SpaceX持续推进星座组网的组成部分,助力星链扩容与技术迭代,目前星链已有超七千九百颗卫星在轨运行,平均下载速度超200Mbps。

基本信息
目录编号:
65026
目录名称:
STARLINK-34804
国际标识:
2025-161M
轨道中心:
EARTH
卫星名称:
星链-34804
卫星全名:
星链-34804 (STARLINK-34804)
卫星状态:
在轨 (已飞行410 天)
发射日期:
2025-07-30 UTC
国别 :
美国 (US)
星等 :
--
该卫星已列入 空间交会检测服务 Space Conjunction Data Service (SCDS) ,当前飞行风险评估等级: 无高风险
轨道信息
数据来源 国际轨道数据
星历时间: 2026-09-13T07:10:50+0800
5小时前
查看轨道信息
半长轴: 6840.851km
偏心率: 0.0001394
轨道倾角: 53.159°
近地点辐角 94.646°
升交点赤经 142.836°
平近点角 265.471°
近地点: 461.76km
远地点: 463.668km
周期: 93.848分钟
每日圈数: 15.343964
详细信息
固有亮度:
5
最大亮度:
2.5
卫星平台:
Starlink V1.0
覆盖范围:
全球
运营商:
太空探索技术公司
运营商所在国:
美国
制造商(研发单位):
太空探索技术公司
制造商所在国:
美国
使用方式:
暂无
卫星简介
Starlink 计划是 SpaceX 推出的全球卫星互联网项目,通过发射低轨道卫星,为全球尤其是偏远地区提供高速、低延迟的互联网服务。自 2019 年起,Starlink 已部署数千颗卫星,旨在缩小全球数字鸿沟,推动互联网普及。该项目还为军事、航空等行业提供通信支持,带来广泛经济效益。
2D轨道图
3D轨道图
轨道高度分析图
轨道倾角分析图
轨道综合分析图
查看轨道综合分析图
交会数据列表
事件ID 空间交会对象 最接近时刻(TCA) 交会距离 交会风险概率(CRP) 交会风险指数(CRI) 操作
CDM_260906-154005-270406-502621
2026-09-06T
15:40:34+0000
2.425 km
极远距离
1.599439E-6 低风险 0.39
与全量物体交会距离演化趋势
与全量物体交会风险概率演化趋势